| time (UTC) | temp F | wind direction | speed knots | gust knots | rain 1hr in | rain 24hr in | rain mn in | humidity % | barometer mb |
| 20260906001518 | 70 | 137 | 1.7 | 2.6 | 0.00 | 0.00 | 0.00 | 78 | |
| 20260906000518 | 71 | 116 | 0.9 | 2.6 | 0.00 | 0.00 | 0.00 | 77 | |
| 20260905235519 | 72 | 83 | 0.9 | 2.6 | 0.00 | 0.00 | 0.00 | 76 | |
| 20260905234519 | 72 | 122 | 0.9 | 2.6 | 0.00 | 0.00 | 0.00 | 76 | |
| 20260905233519 | 73 | 105 | 1.7 | 2.6 | 0.00 | 0.00 | 0.00 | 75 | |
| 20260905232519 | 75 | 119 | 1.7 | 2.6 | 0.00 | 0.00 | 0.00 | 73 | |
| 20260905231520 | 76 | 42 | 1.7 | 3.5 | 0.00 | 0.00 | 0.00 | 69 | |
| 20260905230517 | 76 | 57 | 1.7 | 3.5 | 0.00 | 0.00 | 0.00 | 69 | |
| 20260905225519 | 76 | 47 | 2.6 | 5.2 | 0.00 | 0.00 | 0.00 | 67 | |
| 20260905224521 | 77 | 48 | 3.5 | 5.2 | 0.00 | 0.00 | 0.00 | 66 | |
| 20260905223520 | 77 | 50 | 4.3 | 7.0 | 0.00 | 0.00 | 0.00 | 65 | |
| 20260905222517 | 77 | 35 | 4.3 | 7.8 | 0.00 | 0.00 | 0.00 | 65 | |
| 20260905220517 | 77 | 30 | 5.2 | 9.6 | 0.00 | 0.00 | 0.00 | 65 | |
| 20260905215520 | 76 | 48 | 5.2 | 7.8 | 0.00 | 0.00 | 0.00 | 66 | |
| 20260905214518 | 76 | 50 | 4.3 | 7.0 | 0.00 | 0.00 | 0.00 | 68 | |
| 20260905213518 | 77 | 25 | 6.1 | 9.6 | 0.00 | 0.00 | 0.00 | 66 | |
| 20260905212518 | 78 | 42 | 4.3 | 9.6 | 0.00 | 0.00 | 0.00 | 66 | |
| 20260905211518 | 78 | 13 | 2.6 | 5.2 | 0.00 | 0.00 | 0.00 | 67 | |
| 20260905210518 | 77 | 48 | 2.6 | 6.1 | 0.00 | 0.00 | 0.00 | 68 | |
| 20260905205518 | 76 | 27 | 2.6 | 4.3 | 0.00 | 0.00 | 0.00 | 70 | |
| 20260905204520 | 76 | 5 | 5.2 | 8.7 | 0.00 | 0.00 | 0.00 | 71 | |
| 20260905203519 | 76 | 20 | 6.1 | 7.8 | 0.00 | 0.00 | 0.00 | 70 | |
| 20260905202520 | 76 | 22 | 6.1 | 9.6 | 0.00 | 0.00 | 0.00 | 70 | |
| 20260905201516 | 76 | 6 | 5.2 | 7.8 | 0.00 | 0.00 | 0.00 | 73 | |
| 20260905195520 | 76 | 19 | 7.0 | 11.3 | 0.00 | 0.00 | 0.00 | 70 | |
| 20260905194520 | 76 | 14 | 5.2 | 8.7 | 0.00 | 0.00 | 0.00 | 70 | |
| 20260905193517 | 76 | 350 | 4.3 | 7.8 | 0.00 | 0.00 | 0.00 | 72 | |
| 20260905192518 | 76 | 22 | 7.0 | 8.7 | 0.00 | 0.00 | 0.00 | 70 | |
| 20260905190517 | 76 | 8 | 5.2 | 8.7 | 0.00 | 0.00 | 0.00 | 72 | |
| 20260905185521 | 76 | 9 | 5.2 | 8.7 | 0.00 | 0.00 | 0.00 | 72 | |
| 20260905183519 | 75 | 20 | 6.1 | 11.3 | 0.00 | 0.00 | 0.00 | 71 | |
| 20260905182518 | 75 | 3 | 6.1 | 10.4 | 0.00 | 0.00 | 0.00 | 73 | |
| 20260905181518 | 74 | 14 | 5.2 | 8.7 | 0.00 | 0.00 | 0.00 | 72 | |
| 20260905180518 | 75 | 344 | 7.0 | 8.7 | 0.00 | 0.00 | 0.00 | 73 | |
| 20260905175519 | 0 | 332 | 7.8 | 9.6 | 0.00 | 0.00 | 0.00 | ||
| 20260905175019 | 76 | 1 | 5.2 | 10.4 | 0.00 | 0.00 | 0.00 | 71 |